QTR44R OTHH-LIRF

Flight info

Callsign QTR44R
Flight time N/A
Altitude 34000
Route TULUB B457 BHR M444 DAVUS L602 GADSI M860 SEPTU DCT VUSEB M860 NINVA UM860 EFFEZ/N0502F360 UM860 ODALI UL852 NEGEM DCT LUKOV DCT RESLA DCT DOLAP DCT RAMAP DCT VELIT DCT SOMIG DCT VELUG/N0501F330 DCT ESODU/N0413F190 Z924 MOPUV
Aircraft B77W/H-SDE1E2E3FGHIJ2J3J4J5M1RWXY/LB1D1

Departure

Time 2026-02-17 11:53
Airport Hamad International Airport (OTHH)

Arrival

Time N/A
Airport Rome–Fiumicino Leonardo da Vinci International Airport (LIRF)
Time Latitude Longitude Altitude Speed Heading
2026-02-17 11:45 25.27122 51.60895 32 ft 0 kts 248°
2026-02-17 11:48 25.27115 51.60877 31 ft 8 kts 248°
2026-02-17 11:48 25.27082 51.60784 35 ft 15 kts 248°
2026-02-17 11:48 25.27093 51.60686 35 ft 14 kts 310°
2026-02-17 11:49 25.27093 51.60578 35 ft 18 kts 250°
2026-02-17 11:49 25.27046 51.60448 35 ft 18 kts 248°
2026-02-17 11:49 25.26999 51.60317 34 ft 18 kts 248°
2026-02-17 11:49 25.26955 51.60193 34 ft 17 kts 249°
2026-02-17 11:50 25.26920 51.60137 33 ft 4 kts 180°
2026-02-17 11:50 25.26864 51.60162 33 ft 16 kts 158°
2026-02-17 11:50 25.26705 51.60232 33 ft 33 kts 158°
2026-02-17 11:51 25.26297 51.60410 34 ft 30 kts 158°
2026-02-17 11:51 25.26117 51.60490 34 ft 26 kts 158°
2026-02-17 11:51 25.25948 51.60565 34 ft 26 kts 158°
2026-02-17 11:51 25.25783 51.60639 34 ft 26 kts 159°
2026-02-17 11:52 25.25641 51.60697 34 ft 15 kts 171°
2026-02-17 11:52 25.25587 51.60621 32 ft 15 kts 261°
2026-02-17 11:52 25.25614 51.60513 30 ft 15 kts 320°
2026-02-17 11:52 25.25756 51.60447 32 ft 36 kts 338°
2026-02-17 11:53 25.26216 51.60244 33 ft 106 kts 338°
2026-02-17 11:53 25.27086 51.59861 31 ft 161 kts 338°
2026-02-17 11:53 25.28240 51.59374 260 ft 182 kts 340°
2026-02-17 11:53 25.29442 51.58854 861 ft 190 kts 340°
2026-02-17 11:54 25.30660 51.58315 1582 ft 188 kts 340°
2026-02-17 11:54 25.31917 51.57756 1962 ft 205 kts 340°
2026-02-17 11:54 25.33320 51.57131 2163 ft 230 kts 339°
2026-02-17 11:55 25.36492 51.55714 3236 ft 255 kts 339°
2026-02-17 11:55 25.38148 51.54976 3858 ft 257 kts 340°
2026-02-17 11:55 25.39818 51.54420 4301 ft 254 kts 358°
2026-02-17 11:55 25.41599 51.54501 4841 ft 261 kts
2026-02-17 11:56 25.43420 51.54657 5569 ft 263 kts
2026-02-17 11:56 25.45257 51.54795 6346 ft 266 kts
2026-02-17 11:56 25.47108 51.54921 7100 ft 267 kts
2026-02-17 11:56 25.48968 51.55038 7845 ft 268 kts
2026-02-17 11:57 25.50836 51.55149 8601 ft 269 kts
2026-02-17 11:57 25.52715 51.55256 9333 ft 271 kts
2026-02-17 11:57 25.54608 51.55362 10052 ft 274 kts
2026-02-17 11:57 25.56539 51.55467 10509 ft 287 kts
2026-02-17 11:58 25.58618 51.55581 10664 ft 310 kts
2026-02-17 11:58 25.60855 51.55702 10841 ft 333 kts
2026-02-17 11:58 25.63242 51.55830 11112 ft 352 kts
2026-02-17 11:59 25.68250 51.56074 12439 ft 366 kts
2026-02-17 11:59 25.70801 51.56170 13318 ft 368 kts
2026-02-17 11:59 25.73369 51.56266 14129 ft 371 kts
2026-02-17 11:59 25.75959 51.56367 14868 ft 374 kts
2026-02-17 12:00 25.78573 51.56470 15600 ft 378 kts
2026-02-17 12:00 25.81202 51.56405 16173 ft 382 kts 351°
2026-02-17 12:00 25.83735 51.55401 16754 ft 394 kts 333°
2026-02-17 12:00 25.85954 51.53583 17568 ft 401 kts 320°
2026-02-17 12:01 25.87710 51.51156 18322 ft 408 kts 304°
2026-02-17 12:01 25.89078 51.48353 18816 ft 417 kts 301°
2026-02-17 12:01 25.90405 51.45461 19344 ft 423 kts 300°
2026-02-17 12:01 25.91747 51.42539 19953 ft 426 kts 300°
2026-02-17 12:02 25.93122 51.39607 20550 ft 430 kts 301°
2026-02-17 12:02 25.94532 51.36658 21112 ft 434 kts 301°
2026-02-17 12:02 25.95967 51.33687 21634 ft 439 kts 300°
2026-02-17 12:03 25.98865 51.27638 22631 ft 448 kts 299°
2026-02-17 12:03 26.00304 51.24553 23143 ft 452 kts 299°
2026-02-17 12:03 26.01751 51.21434 23619 ft 456 kts 298°
2026-02-17 12:03 26.03208 51.18293 24002 ft 459 kts 298°
2026-02-17 12:04 26.04677 51.15132 24434 ft 461 kts 298°
2026-02-17 12:04 26.06151 51.11961 24892 ft 462 kts 298°
2026-02-17 12:04 26.07631 51.08780 25284 ft 465 kts 298°
2026-02-17 12:04 26.09122 51.05575 25676 ft 468 kts 298°
2026-02-17 12:05 26.10618 51.02357 26088 ft 469 kts 298°
2026-02-17 12:05 26.12062 50.99194 26413 ft 473 kts 296°
2026-02-17 12:05 26.13447 50.95857 26772 ft 476 kts 295°
2026-02-17 12:05 26.14811 50.92487 27081 ft 480 kts 295°
2026-02-17 12:06 26.16191 50.89093 27429 ft 482 kts 295°
2026-02-17 12:06 26.17108 50.86842 27740 ft 482 kts 295°
2026-02-17 12:06 26.18966 50.82285 28237 ft 484 kts 295°
2026-02-17 12:07 26.21743 50.75475 28852 ft 490 kts 295°
2026-02-17 12:07 26.23155 50.72008 29111 ft 493 kts 295°
2026-02-17 12:07 26.24803 50.68672 29224 ft 495 kts 307°
2026-02-17 12:07 26.27164 50.65876 29375 ft 499 kts 320°
2026-02-17 12:08 26.30035 50.63716 29697 ft 499 kts 332°
2026-02-17 12:08 26.32189 50.62712 30028 ft 495 kts 341°
2026-02-17 12:08 26.35468 50.61553 30373 ft 495 kts 341°
2026-02-17 12:08 26.38743 50.60336 30649 ft 496 kts 340°
2026-02-17 12:09 26.41987 50.59059 31063 ft 493 kts 340°
2026-02-17 12:09 26.45236 50.57834 31414 ft 493 kts 341°
2026-02-17 12:09 26.48497 50.56656 31767 ft 493 kts 341°
2026-02-17 12:09 26.51762 50.55474 32069 ft 493 kts 341°
2026-02-17 12:10 26.55012 50.54280 32499 ft 491 kts 340°
2026-02-17 12:10 26.58246 50.53065 32892 ft 489 kts 340°
2026-02-17 12:10 26.61465 50.51843 33248 ft 489 kts 340°
2026-02-17 12:11 26.67832 50.49194 33888 ft 487 kts 332°
2026-02-17 12:11 26.70792 50.47333 34007 ft 491 kts 326°
2026-02-17 12:11 26.76085 50.42583 34054 ft 485 kts 314°
2026-02-17 12:12 26.82052 50.36102 34051 ft 480 kts 315°
2026-02-17 12:12 26.91734 50.25871 34054 ft 477 kts 315°
2026-02-17 12:13 27.01346 50.15669 34057 ft 476 kts 315°
2026-02-17 12:13 27.11490 50.06088 34074 ft 480 kts 321°
2026-02-17 12:14 27.22062 49.96872 34069 ft 489 kts 321°
2026-02-17 12:15 27.38171 49.82686 34051 ft 486 kts 321°
2026-02-17 12:15 27.48711 49.73378 34059 ft 478 kts 320°
2026-02-17 12:16 27.59146 49.64138 34068 ft 478 kts 320°
2026-02-17 12:16 27.69698 49.54771 34076 ft 486 kts 320°
2026-02-17 12:17 27.80365 49.45266 34076 ft 490 kts 320°
2026-02-17 12:17 27.90966 49.35793 34053 ft 481 kts 320°
2026-02-17 12:18 28.02502 49.28408 34070 ft 478 kts 335°
2026-02-17 12:18 28.14849 49.22629 34085 ft 487 kts 335°
2026-02-17 12:19 28.27538 49.16530 34058 ft 502 kts 334°